sat.trackr.live / text

‹ back to catalog

JILIN-1 GAOFEN 03D52

NORAD 54255 · 2022-155E

PAYLOAD ACTIVE UNKNOWN

§ Identity

Operator
Country
PRC
Launch date
2022-11-16
Launch site
JSC
Launch vehicle
Mass (kg)
RCS (m²)

External: N2YO · Heavens-Above · Gunter

§ Orbital elements

Epoch: 2026-05-25T04:22:40.167840Z

Period
92.45 min
Inclination
97.6166°
Eccentricity
0.0004930
Mean motion
15.57550185 rev/d
Perigee alt
391.4 km
Apogee alt
398.1 km
Semi-major
6,772.9 km
B*
5.6810e-4
RAAN
286.7163°
Arg perigee
103.4885°
Mean anomaly
256.6919°
Rev number
19,612

§ Raw data

JILIN-1 GAOFEN 03D521 54255U 22155E   26145.18240935  .00041908  00000+0  56810-3 0  99902 54255  97.6166 286.7163 0004930 103.4885 256.6919 15.57550185196125

JSON: /api/v1/satellites/54255 · /tle

For live sub-satellite position, see the globe view (requires WebGL).

§ Visibility from observer

Set your observer location to see the next 7 days of passes ≥ 10°. The values pass through the URL so the page stays shareable.

No JS? Fill the form by hand. The geolocation button needs JavaScript.